sat.trackr.live / text

‹ back to catalog

ONEWEB-0399

NORAD 50479 · 2021-132L

PAYLOAD ACTIVE UNKNOWN

§ Identity

Operator
Country
UK
Launch date
2021-12-27
Launch site
TYMSC
Launch vehicle
Mass (kg)
RCS (m²)

Purposes: comms

External: N2YO · Heavens-Above · Gunter

§ Orbital elements

Epoch: 2026-09-19T13:50:24.825408Z

Period
109.80 min
Inclination
87.8967°
Eccentricity
0.0002203
Mean motion
13.11418018 rev/d
Perigee alt
1,216.0 km
Apogee alt
1,219.4 km
Semi-major
7,595.8 km
B*
1.3422e-3
RAAN
2.3058°
Arg perigee
109.4177°
Mean anomaly
250.7189°
Rev number
22,797

§ Raw data

ONEWEB-03991 50479U 21132L   26262.57667622  .00000488  00000+0  13422-2 0  99962 50479  87.8967   2.3058 0002203 109.4177 250.7189 13.11418018227973

JSON: /api/v1/satellites/50479 · /tle

For live sub-satellite position, see the globe view (requires WebGL).

§ Visibility from observer

Set your observer location to see the next 7 days of passes ≥ 10°. The values pass through the URL so the page stays shareable.

No JS? Fill the form by hand. The geolocation button needs JavaScript.